Location: Chervonnoye
(48.6000°N, 34.4000°E)
Time: 05:18:30
(UTC+00:00)

SL-16 R/B - Pass Details

Date: 23 November 2020
Orbit: 841 x 849 km, 71.0° (Epoch: 18 January)

Event Time Altitude Azimuth Distance (km) Brightness Sun altitude
Rises 17:02:45 0° 219° (SW) 3,387 5.8 -30.6°
Reaches altitude 10° 17:05:14 10° 223° (SW) 2,455 5.0 -31.0°
Enters shadow 17:10:28 58° 287° (WNW) 980 2.7 -31.9°
